Flag for Germany Weather past 2 weeks in Troisdorf, North Rhine-Westphalia, Germany

Now
57 °F

Scattered clouds.


Feels Like: 57 °F
Forecast: 48 / 63 °F
Wind: 3 mph from East

Location: Koeln / Bonn

Current Time: Sep 3, 2015 at 11:09:47 AM

Latest Report: Sep 3, 2015 at 10:20 AM


Visibility: N/A

Pressure: 29.98 "Hg

Humidity: 88%

Dew point: 54 °F

Location of TroisdorfLocation

Historic Weather in Troisdorf — Graph

°F

Troisdorf temperature yesterday

Maximum temperature yesterday: 66 °F (at 3:50 PM)
Minimum temperature yesterday: 50 °F (at 5:20 AM)
Average temperature yesterday: 58 °F

Past Weeks' High & Low Weather Summary

 TemperatureHumidityPressure
High93 °F (Aug 30, 4:20 PM)100% (Sep 1, 8:20 AM)30.27 "Hg (Sep 1, 8:20 AM)
Low48 °F (Sep 3, 7:50 AM)26% (Aug 23, 3:20 PM)29.56 "Hg (Aug 24, 2:20 PM)
Average66 °F69%29.98 "Hg
* Reported Aug 19 9:20 AM — Sep 3 9:50 AM, Troisdorf, Weather by CustomWeather, © 2015

Note: Actual official high and low records may vary slightly from our data, if they occured in-between our weather recording intervals... More about our weather records

Advertising

Troisdorf weather history for previous 24 hours

 ConditionsComfort  
Time TempWeatherWind HumidityBarometerVisibility
9:50 AM
Thu, Sep 3
55 °FScattered clouds.3 mph94%29.98 "HgN/A
9:20 AM55 °FScattered clouds.2 mph94%29.98 "HgN/A
8:50 AM54 °FScattered clouds.3 mph100%29.98 "Hg4 mi
8:20 AM52 °FCool.3 mph100%29.98 "Hg1 mi
7:50 AM48 °FCool.2 mph100%29.98 "Hg2 mi
7:20 AM50 °FCool.1 mph100%29.95 "Hg4 mi
6:50 AM50 °FFog.2 mph100%29.98 "Hg5 mi
6:20 AM50 °FCool.1 mph100%29.98 "HgN/A
5:20 AM52 °FCool.3 mph100%29.98 "HgN/A
4:50 AM54 °FClear.2 mph94%29.98 "Hg10 mi
4:20 AM54 °FClear.2 mph100%29.98 "Hg10 mi
3:50 AM54 °FClear.2 mph94%29.98 "Hg10 mi
3:20 AM54 °FClear.2 mph100%29.98 "Hg10 mi
2:50 AM55 °FSprinkles. Passing clouds.3 mph94%29.98 "HgN/A
2:20 AM55 °FSprinkles. Passing clouds.2 mph94%29.98 "HgN/A
1:50 AM55 °FSprinkles. Passing clouds.1 mph88%29.98 "HgN/A
1:20 AM54 °FClear.5 mph100%30.01 "Hg10 mi
12:50 AM55 °FClear.2 mph94%30.01 "Hg10 mi
12:20 AM55 °FClear.1 mph94%30.01 "Hg10 mi
11:50 PM
Wed, Sep 2
55 °FClear.2 mph94%30.01 "Hg10 mi
11:20 PM55 °FSprinkles. Passing clouds.3 mph94%30.01 "HgN/A
10:50 PM57 °FSprinkles. Partly cloudy.3 mph88%30.01 "HgN/A
10:20 PM57 °FSprinkles. Passing clouds.5 mph88%30.01 "HgN/A
9:50 PM55 °FSprinkles. Passing clouds.1 mph94%30.01 "HgN/A
9:20 PM55 °FScattered showers. Partly cloudy.2 mph88%30.01 "HgN/A
8:50 PM57 °FSunny.3 mph82%30.01 "Hg10 mi
8:20 PM59 °FSunny.3 mph77%30.01 "Hg10 mi
7:50 PM61 °FPartly sunny.6 mph72%30.01 "HgN/A
7:20 PM61 °FPartly sunny.6 mph72%30.01 "HgN/A
6:50 PM63 °FScattered showers. Scattered clouds.6 mph68%29.98 "HgN/A
6:20 PM63 °FBroken clouds.8 mph68%29.98 "HgN/A
5:20 PM64 °FScattered clouds.8 mph68%29.98 "HgN/A
4:50 PM64 °FScattered clouds.6 mph64%29.98 "HgN/A
4:20 PM64 °FScattered clouds.6 mph64%30.01 "HgN/A
3:50 PM66 °FScattered clouds.5 mph64%30.01 "HgN/A
3:20 PM64 °FScattered clouds.5 mph68%30.01 "HgN/A
2:50 PM63 °FScattered clouds.6 mph73%30.01 "HgN/A
2:20 PM63 °FScattered clouds.3 mph73%30.01 "HgN/A
1:50 PM61 °FScattered showers. Scattered clouds.2 mph77%30.04 "HgN/A
1:20 PM61 °FRain showers. Partly sunny.6 mph77%30.04 "HgN/A
12:50 PM64 °FSprinkles. Scattered clouds.5 mph60%30.04 "HgN/A
12:20 PM64 °FScattered clouds.3 mph64%30.04 "HgN/A
11:50 AM63 °FScattered clouds.5 mph68%30.04 "HgN/A
11:20 AM63 °FScattered clouds.3 mph73%30.04 "HgN/A
Weather by CustomWeather, © 2015

See weather overviewHow to use our weather pages